When you browse on this site, cookies collect data to enhance your experience and personalize the content and advertising you see.
Visit our Privacy Policy to learn more. By continuing to use the site, you agree to this use of cookies and data.
  • In Hungary
  • List of Countries
  • For 7 days
  • Water Temperature
  • Satellite Maps
  • Weather Map
  • News
  • Weather Widgets
  • user-avatar
    Login

    Hourly Weather Andora

    Today, 24 March, Sunday

    Time Temperature Precipitation Wind Pressure Humidity
    00:00 +4°C° 0 mm 1 mps 626 mmHg 69%
    01:00 +4°C° 0 mm 1 mps 626 mmHg 69%
    02:00 +4°C° 0 mm 1 mps 626 mmHg 69%
    03:00 +3°C° 0 mm 1 mps 626 mmHg 69%
    04:00 +3°C° 0 mm 1 mps 626 mmHg 68%
    05:00 +3°C° 0 mm 1 mps 626 mmHg 67%
    06:00 +3°C° 0 mm 1 mps 626 mmHg 65%
    07:00 +6°C° 0 mm 1 mps 627 mmHg 58%
    08:00 +9°C° 0 mm 1 mps 628 mmHg 50%
    09:00 +10°C° 0 mm 0 mps 629 mmHg 43%
    10:00 +12°C° 0 mm 1 mps 630 mmHg 40%
    11:00 +13°C° 0 mm 1 mps 630 mmHg 38%
    12:00 +14°C° 0 mm 1 mps 630 mmHg 35%
    13:00 +14°C° 0 mm 1 mps 630 mmHg 36%
    14:00 +14°C° 0 mm 1 mps 629 mmHg 38%
    15:00 +13°C° 0 mm 1 mps 629 mmHg 39%
    16:00 +11°C° 0.1 mm 1 mps 628 mmHg 49%
    17:00 +10°C° 0.1 mm 1 mps 627 mmHg 58%
    18:00 +8°C° 0.1 mm 1 mps 627 mmHg 67%
    19:00 +7°C° 0 mm 1 mps 626 mmHg 72%
    20:00 +5°C° 0 mm 1 mps 626 mmHg 77%
    21:00 +3°C° 0 mm 2 mps 626 mmHg 82%
    22:00 +3°C° 0 mm 2 mps 626 mmHg 82%
    23:00 +2°C° 0 mm 2 mps 625 mmHg 82%

    Tomorrow, 25 March, Monday

    Time Temperature Precipitation Wind Pressure Humidity
    00:00 +2°C° 0 mm 2 mps 625 mmHg 81%
    01:00 +1°C° 0 mm 2 mps 625 mmHg 78%
    02:00 +1°C° 0 mm 2 mps 625 mmHg 75%
    03:00 +1°C° 0 mm 2 mps 624 mmHg 71%
    04:00 +1°C° 0 mm 2 mps 624 mmHg 70%
    05:00 -1°C° 0 mm 2 mps 624 mmHg 69%
    06:00 -1°C° 0 mm 2 mps 624 mmHg 68%
    07:00 +2°C° 0 mm 2 mps 625 mmHg 59%
    08:00 +5°C° 0 mm 2 mps 626 mmHg 50%
    09:00 +7°C° 0 mm 2 mps 627 mmHg 41%
    10:00 +8°C° 0 mm 2 mps 627 mmHg 39%
    11:00 +9°C° 0 mm 2 mps 627 mmHg 36%
    12:00 +10°C° 0 mm 3 mps 628 mmHg 34%
    13:00 +10°C° 0 mm 3 mps 627 mmHg 35%
    14:00 +9°C° 0 mm 3 mps 626 mmHg 37%
    15:00 +9°C° 0 mm 3 mps 626 mmHg 38%
    16:00 +7°C° 0 mm 3 mps 625 mmHg 47%
    17:00 +4°C° 0 mm 3 mps 624 mmHg 56%
    18:00 +1°C° 0 mm 3 mps 623 mmHg 65%
    19:00 +1°C° 0 mm 3 mps 623 mmHg 70%
    20:00 0°C° 0 mm 3 mps 624 mmHg 76%
    21:00 -1°C° 0 mm 3 mps 624 mmHg 82%
    22:00 -2°C° 0 mm 4 mps 624 mmHg 83%
    23:00 -2°C° 0 mm 4 mps 624 mmHg 84%

    Day after tomorrow, 26 March, Tuesday

    Time Temperature Precipitation Wind Pressure Humidity
    00:00 -2°C° 0 mm 4 mps 624 mmHg 84%
    01:00 -3°C° 0 mm 4 mps 624 mmHg 83%
    02:00 -3°C° 0 mm 4 mps 624 mmHg 81%
    03:00 -4°C° 0 mm 4 mps 624 mmHg 79%
    04:00 -4°C° 0 mm 4 mps 624 mmHg 73%
    05:00 -5°C° 0 mm 3 mps 624 mmHg 68%
    06:00 -6°C° 0 mm 3 mps 624 mmHg 62%
    07:00 -3°C° 0 mm 4 mps 625 mmHg 48%
    08:00 -1°C° 0 mm 4 mps 626 mmHg 33%
    09:00 +1°C° 0 mm 4 mps 627 mmHg 19%
    10:00 +3°C° 0 mm 4 mps 627 mmHg 18%
    11:00 +4°C° 0 mm 4 mps 627 mmHg 17%
    12:00 +5°C° 0 mm 4 mps 627 mmHg 17%
    13:00 +5°C° 0 mm 4 mps 627 mmHg 20%
    14:00 +5°C° 0 mm 4 mps 626 mmHg 23%
    15:00 +4°C° 0 mm 4 mps 626 mmHg 26%
    16:00 +3°C° 0 mm 4 mps 625 mmHg 34%
    17:00 +1°C° 0 mm 3 mps 625 mmHg 42%
    18:00 -1°C° 0 mm 3 mps 624 mmHg 50%
    19:00 -2°C° 0 mm 2 mps 625 mmHg 55%
    20:00 -2°C° 0 mm 2 mps 625 mmHg 59%
    21:00 -3°C° 0 mm 2 mps 625 mmHg 63%
    22:00 -3°C° 0 mm 2 mps 625 mmHg 63%
    23:00 -3°C° 0 mm 2 mps 625 mmHg 62%

    27 March, Wednesday

    Time Temperature Precipitation Wind Pressure Humidity
    00:00 -3°C° 0 mm 2 mps 625 mmHg 62%
    01:00 -4°C° 0 mm 2 mps 625 mmHg 62%
    02:00 -4°C° 0 mm 2 mps 625 mmHg 63%
    03:00 -4°C° 0 mm 2 mps 625 mmHg 63%
    04:00 -4°C° 0 mm 2 mps 625 mmHg 58%
    05:00 -4°C° 0 mm 2 mps 625 mmHg 52%
    06:00 -4°C° 0 mm 2 mps 625 mmHg 47%
    07:00 -1°C° 0 mm 2 mps 626 mmHg 38%
    08:00 +3°C° 0 mm 2 mps 627 mmHg 29%
    09:00 +6°C° 0 mm 2 mps 628 mmHg 20%
    10:00 +7°C° 0 mm 2 mps 629 mmHg 20%
    11:00 +8°C° 0 mm 2 mps 629 mmHg 19%
    12:00 +9°C° 0 mm 2 mps 629 mmHg 19%
    13:00 +9°C° 0 mm 2 mps 629 mmHg 22%
    14:00 +9°C° 0 mm 2 mps 628 mmHg 25%
    15:00 +9°C° 0 mm 3 mps 628 mmHg 28%
    16:00 +6°C° 0 mm 2 mps 627 mmHg 38%
    17:00 +4°C° 0 mm 2 mps 627 mmHg 48%
    18:00 +2°C° 0 mm 2 mps 626 mmHg 58%
    19:00 +1°C° 0 mm 2 mps 626 mmHg 65%
    20:00 -1°C° 0 mm 2 mps 626 mmHg 72%
    21:00 0°C° 0 mm 1 mps 626 mmHg 79%
    22:00 0°C° 0 mm 1 mps 626 mmHg 78%
    23:00 0°C° 0 mm 1 mps 626 mmHg 78%

    28 March, Thursday

    Time Temperature Precipitation Wind Pressure Humidity
    00:00 0°C° 0 mm 1 mps 626 mmHg 78%
    01:00 0°C° 0 mm 1 mps 626 mmHg 80%
    02:00 0°C° 0 mm 1 mps 626 mmHg 83%
    03:00 0°C° 0 mm 1 mps 626 mmHg 85%
    04:00 0°C° 0 mm 1 mps 626 mmHg 85%
    05:00 -1°C° 0 mm 1 mps 626 mmHg 85%
    06:00 -1°C° 0 mm 1 mps 626 mmHg 85%
    07:00 +2°C° 0 mm 1 mps 627 mmHg 72%
    08:00 +4°C° 0 mm 1 mps 629 mmHg 59%
    09:00 +7°C° 0 mm 1 mps 630 mmHg 47%
    10:00 +8°C° 0 mm 1 mps 630 mmHg 45%
    11:00 +9°C° 0 mm 1 mps 630 mmHg 44%
    12:00 +10°C° 0 mm 1 mps 630 mmHg 42%
    13:00 +9°C° 0.1 mm 1 mps 630 mmHg 46%
    14:00 +8°C° 0.1 mm 1 mps 629 mmHg 51%
    15:00 +7°C° 0.1 mm 1 mps 628 mmHg 55%
    16:00 +6°C° 0.1 mm 1 mps 628 mmHg 62%
    17:00 +5°C° 0.1 mm 1 mps 628 mmHg 70%
    18:00 +4°C° 0.1 mm 1 mps 627 mmHg 77%
    19:00 +3°C° 0.1 mm 0 mps 628 mmHg 81%
    20:00 +2°C° 0.1 mm 0 mps 628 mmHg 84%
    21:00 +2°C° 0.1 mm 0 mps 628 mmHg 88%
    22:00 +1°C° 0 mm 0 mps 628 mmHg 89%
    23:00 +1°C° 0 mm 0 mps 628 mmHg 91%

    29 March, Friday

    Time Temperature Precipitation Wind Pressure Humidity
    00:00 0°C° 0 mm 0 mps 628 mmHg 92%
    01:00 0°C° 0 mm 0 mps 627 mmHg 92%
    02:00 -1°C° 0 mm 0 mps 627 mmHg 92%
    03:00 -1°C° 0 mm 0 mps 627 mmHg 92%
    04:00 -1°C° 0 mm 0 mps 627 mmHg 92%
    05:00 -1°C° 0 mm 0 mps 627 mmHg 91%
    06:00 -1°C° 0 mm 0 mps 627 mmHg 91%
    07:00 +2°C° 0 mm 1 mps 628 mmHg 79%
    08:00 +5°C° 0 mm 1 mps 629 mmHg 67%
    09:00 +7°C° 0 mm 1 mps 631 mmHg 54%
    10:00 +7°C° 0 mm 1 mps 630 mmHg 54%
    11:00 +7°C° 0 mm 1 mps 630 mmHg 53%
    12:00 +8°C° 0 mm 1 mps 630 mmHg 52%
    13:00 +7°C° 0.1 mm 1 mps 630 mmHg 55%
    14:00 +7°C° 0.1 mm 1 mps 629 mmHg 58%
    15:00 +6°C° 0.1 mm 0 mps 629 mmHg 61%
    16:00 +5°C° 0.1 mm 0 mps 629 mmHg 65%
    17:00 +4°C° 0.1 mm 0 mps 628 mmHg 70%
    18:00 +4°C° 0.1 mm 0 mps 628 mmHg 75%
    19:00 +3°C° 0 mm 0 mps 628 mmHg 78%
    20:00 +2°C° 0 mm 0 mps 628 mmHg 82%
    21:00 +2°C° 0 mm 0 mps 629 mmHg 85%
    22:00 +1°C° 0 mm 0 mps 628 mmHg 87%
    23:00 +1°C° 0 mm 0 mps 628 mmHg 89%
    Show more